TV
NORAD ID: 25404
Int'l Code: 1998-044A
Perigee: 35,764.6 km
Apogee: 35,821.7 km
Inclination: 1.4 °
Period: 1,436.1 minutes
Semi major axis: 42164 km
Launch date: July 18, 1998
Source: People's Republic of China (PRC)
Comments: 11 C-band, broadcasting, business services, direct-to-home TV broadcasting, telecommunications, VSAT networks; Asia Pacific region.
Two Line Element Set (TLE):
1 25404U 98044A 13141.65521672 -.00000263 00000-0 10000-3 0 2140
2 25404 001.4368 074.5972 0006770 010.7508 171.9852 01.00273927 54546
Source: AFSPC
NASA's NSSDC Master Catalog entry for CHINASAT 5B (SINOSAT 1)